Time,TemperatureF,DewpointF,PressureIn,WindDirection,WindDirectionDegrees,WindSpeedMPH,WindSpeedGustMPH,Humidity,HourlyPrecipIn,Conditions,Clouds,dailyrainin,SoftwareType,DateUTC
2013-05-20 00:00:00,80.2,67.8,30.06,SE,135,4.0,4.0,66,0.00,CLR,,0.04,WeatherDisplay:10.37,2013-05-20 04:00:00,
2013-05-20 00:01:00,80.2,67.8,30.09,NE,45,9.8,9.8,66,0.00,CLR,,0.00,WeatherDisplay:10.37,2013-05-20 04:01:00,
2013-05-20 00:02:00,80.2,67.8,30.09,SE,135,9.2,9.2,66,0.00,CLR,,0.00,WeatherDisplay:10.37,2013-05-20 04:02:00,
2013-05-20 00:07:00,80.1,68.1,30.09,NE,45,3.5,3.5,67,0.00,CLR,,0.00,WeatherDisplay:10.37,2013-05-20 04:07:00,
2013-05-20 00:12:00,80.1,68.1,30.09,North,0,5.8,5.8,67,0.00,CLR,,0.00,WeatherDisplay:10.37,2013-05-20 04:12:00,
2013-05-20 00:17:00,80.2,68.7,30.09,North,0,4.3,4.3,68,0.00,CLR,,0.00,WeatherDisplay:10.37,2013-05-20 04:17:00,
2013-05-20 00:22:00,80.4,68.9,30.09,SE,135,8.5,8.5,68,0.00,CLR,,0.00,WeatherDisplay:10.37,2013-05-20 04:22:00,
2013-05-20 00:27:00,80.4,68.9,30.09,West,270,9.2,9.2,68,0.00,CLR,,0.00,WeatherDisplay:10.37,2013-05-20 04:27:00,
2013-05-20 00:33:00,80.2,68.3,30.09,ENE,68,7.4,7.4,67,0.00,CLR,,0.00,WeatherDisplay:10.37,2013-05-20 04:33:00,
2013-05-20 00:38:00,79.9,67.9,30.09,East,90,8.1,8.1,67,0.00,CLR,,0.00,WeatherDisplay:10.37,2013-05-20 04:38:00,
2013-05-20 00:43:00,79.9,68.4,30.09,South,180,8.5,8.5,68,0.00,CLR,,0.00,WeatherDisplay:10.37,2013-05-20 04:43:00,
2013-05-20 00:48:00,79.9,68.4,30.09,SE,135,4.6,4.6,68,0.00,CLR,,0.00,WeatherDisplay:10.37,2013-05-20 04:48:00,
2013-05-20 00:53:00,79.9,68.4,30.09,East,90,3.5,4.3,68,0.00,CLR,,0.00,WeatherDisplay:10.37,2013-05-20 04:53:00,
2013-05-20 00:58:00,79.9,68.4,30.09,East,90,6.4,6.4,68,0.00,CLR,,0.00,WeatherDisplay:10.37,2013-05-20 04:58:00,
2013-05-20 01:03:00,80.1,68.5,30.09,North,0,3.5,3.5,68,0.00,CLR,,0.00,WeatherDisplay:10.37,2013-05-20 05:03:00,
2013-05-20 01:08:00,80.2,69.1,30.09,SE,135,6.9,6.9,69,0.00,CLR,,0.00,WeatherDisplay:10.37,2013-05-20 05:08:00,
2013-05-20 01:13:00,79.9,68.8,30.09,SSW,202,9.2,9.2,69,0.00,CLR,,0.00,WeatherDisplay:10.37,2013-05-20 05:13:00,
2013-05-20 01:18:00,79.9,68.8,30.09,East,90,6.2,6.2,69,0.00,CLR,,0.00,WeatherDisplay:10.37,2013-05-20 05:18:00,
2013-05-20 01:24:00,79.9,68.8,30.09,SE,135,5.8,5.8,69,0.00,CLR,,0.00,WeatherDisplay:10.37,2013-05-20 05:24:00,
2013-05-20 01:29:00,79.9,69.2,30.09,SE,135,4.9,4.9,70,0.00,CLR,,0.00,WeatherDisplay:10.37,2013-05-20 05:29:00,
2013-05-20 01:34:00,79.9,69.2,30.06,SE,135,9.2,9.2,70,0.00,CLR,,0.00,WeatherDisplay:10.37,2013-05-20 05:34:00,
2013-05-20 01:39:00,79.7,68.6,30.06,East,90,10.4,10.4,69,0.00,CLR,,0.00,WeatherDisplay:10.37,2013-05-20 05:39:00,
2013-05-20 01:44:00,79.7,69.0,30.06,East,90,5.8,5.8,70,0.00,CLR,,0.00,WeatherDisplay:10.37,2013-05-20 05:44:00,
2013-05-20 01:49:00,79.9,69.2,30.06,SW,225,6.9,6.9,70,0.00,CLR,,0.00,WeatherDisplay:10.37,2013-05-20 05:49:00,
2013-05-20 01:54:00,80.1,69.8,30.06,SE,135,4.6,4.6,71,0.00,CLR,,0.00,WeatherDisplay:10.37,2013-05-20 05:54:00,
2013-05-20 01:59:00,80.2,69.6,30.06,SE,135,8.1,8.1,70,0.00,CLR,,0.00,WeatherDisplay:10.37,2013-05-20 05:59:00,
2013-05-20 02:04:00,80.2,69.1,30.06,ENE,68,6.9,6.9,69,0.00,CLR,,0.00,WeatherDisplay:10.37,2013-05-20 06:04:00,
2013-05-20 02:09:00,80.1,69.0,30.06,East,90,8.1,8.1,69,0.00,CLR,,0.00,WeatherDisplay:10.37,2013-05-20 06:09:00,
2013-05-20 02:14:00,79.9,68.8,30.06,ESE,112,10.4,10.4,69,0.00,CLR,,0.00,WeatherDisplay:10.37,2013-05-20 06:14:00,
2013-05-20 02:20:00,79.9,68.8,30.06,South,180,7.6,7.6,69,0.00,CLR,,0.00,WeatherDisplay:10.37,2013-05-20 06:20:00,
2013-05-20 02:25:00,79.9,68.8,30.06,South,180,6.4,6.4,69,0.00,CLR,,0.00,WeatherDisplay:10.37,2013-05-20 06:25:00,
2013-05-20 02:30:00,79.9,68.8,30.06,SW,225,7.6,7.6,69,0.00,CLR,,0.00,WeatherDisplay:10.37,2013-05-20 06:30:00,
2013-05-20 02:35:00,79.7,68.6,30.06,NE,45,5.8,5.8,69,0.00,CLR,,0.00,WeatherDisplay:10.37,2013-05-20 06:35:00,
2013-05-20 02:40:00,79.7,68.6,30.06,NE,45,9.2,9.2,69,0.00,CLR,,0.00,WeatherDisplay:10.37,2013-05-20 06:40:00,
2013-05-20 02:45:00,79.7,68.6,30.06,SSE,158,5.8,5.8,69,0.00,CLR,,0.00,WeatherDisplay:10.37,2013-05-20 06:45:00,
2013-05-20 02:50:00,79.7,68.6,30.03,SE,132,5.0,12.0,69,0.00,CLR,,0.00,WeatherDisplay:10.37,2013-05-20 06:50:00,
2013-05-20 02:55:00,79.7,69.5,30.03,ESE,112,7.6,7.6,71,0.00,CLR,,0.00,WeatherDisplay:10.37,2013-05-20 06:55:00,
2013-05-20 03:00:00,79.7,69.5,30.03,SSE,158,5.8,5.8,71,0.00,CLR,,0.00,WeatherDisplay:10.37,2013-05-20 07:00:00,
2013-05-20 03:05:00,79.9,69.2,30.03,ESE,112,5.8,5.8,70,0.00,CLR,,0.00,WeatherDisplay:10.37,2013-05-20 07:05:00,
2013-05-20 03:10:00,79.9,69.2,30.03,SSE,158,6.9,6.9,70,0.00,CLR,,0.00,WeatherDisplay:10.37,2013-05-20 07:10:00,
2013-05-20 03:15:00,79.7,69.0,30.03,West,270,8.1,8.1,70,0.00,CLR,,0.00,WeatherDisplay:10.37,2013-05-20 07:15:00,
2013-05-20 03:20:00,79.7,68.6,30.06,SE,135,11.5,11.5,69,0.00,CLR,,0.00,WeatherDisplay:10.37,2013-05-20 07:20:00,
2013-05-20 03:26:00,79.7,69.0,30.06,South,180,8.1,8.1,70,0.00,CLR,,0.00,WeatherDisplay:10.37,2013-05-20 07:26:00,
2013-05-20 03:31:00,79.5,68.9,30.03,SE,135,6.9,6.9,70,0.00,CLR,,0.00,WeatherDisplay:10.37,2013-05-20 07:31:00,
2013-05-20 03:36:00,79.5,68.9,30.03,South,180,8.1,8.1,70,0.00,CLR,,0.00,WeatherDisplay:10.37,2013-05-20 07:36:00,
2013-05-20 03:41:00,79.5,68.9,30.03,ESE,112,8.1,8.1,70,0.00,CLR,,0.00,WeatherDisplay:10.37,2013-05-20 07:41:00,
2013-05-20 03:46:00,79.5,68.9,30.03,ESE,112,9.2,9.2,70,0.00,CLR,,0.00,WeatherDisplay:10.37,2013-05-20 07:46:00,
2013-05-20 03:51:00,79.7,69.5,30.03,South,180,6.9,6.9,71,0.00,CLR,,0.00,WeatherDisplay:10.37,2013-05-20 07:51:00,
2013-05-20 03:56:00,79.7,69.5,30.03,SW,225,9.2,9.2,71,0.00,CLR,,0.00,WeatherDisplay:10.37,2013-05-20 07:56:00,
2013-05-20 04:01:00,79.9,69.6,30.03,ESE,112,8.1,8.1,71,0.00,CLR,,0.00,WeatherDisplay:10.37,2013-05-20 08:01:00,
2013-05-20 04:06:00,79.9,70.0,30.03,NE,45,9.7,9.7,72,0.00,CLR,,0.00,WeatherDisplay:10.37,2013-05-20 08:06:00,
2013-05-20 04:11:00,79.7,69.9,30.03,South,180,6.9,6.9,72,0.00,CLR,,0.00,WeatherDisplay:10.37,2013-05-20 08:11:00,
2013-05-20 04:16:00,79.5,69.7,30.03,South,180,7.8,7.8,72,0.00,CLR,,0.00,WeatherDisplay:10.37,2013-05-20 08:16:00,
2013-05-20 04:22:00,79.5,69.7,30.03,South,180,6.9,6.9,72,0.00,CLR,,0.00,WeatherDisplay:10.37,2013-05-20 08:22:00,
2013-05-20 04:27:00,79.5,69.7,30.03,NNE,22,5.8,5.8,72,0.00,CLR,,0.00,WeatherDisplay:10.37,2013-05-20 08:27:00,
2013-05-20 04:32:00,79.5,70.1,30.00,SE,135,6.4,6.4,73,0.00,CLR,,0.00,WeatherDisplay:10.37,2013-05-20 08:32:00,
2013-05-20 04:37:00,79.3,69.9,30.00,East,90,5.8,5.8,73,0.00,CLR,,0.00,WeatherDisplay:10.37,2013-05-20 08:37:00,
2013-05-20 04:42:00,79.3,69.9,30.00,ESE,112,10.4,10.4,73,0.00,CLR,,0.00,WeatherDisplay:10.37,2013-05-20 08:42:00,
2013-05-20 04:47:00,79.5,70.5,30.03,SE,135,9.2,9.2,74,0.00,CLR,,0.00,WeatherDisplay:10.37,2013-05-20 08:47:00,
2013-05-20 04:52:00,79.7,70.7,30.03,ENE,68,6.9,6.9,74,0.00,CLR,,0.00,WeatherDisplay:10.37,2013-05-20 08:52:00,
2013-05-20 04:57:00,79.7,70.3,30.03,ESE,112,9.2,9.2,73,0.00,CLR,,0.00,WeatherDisplay:10.37,2013-05-20 08:57:00,
2013-05-20 05:02:00,79.5,69.7,30.03,South,180,8.1,8.1,72,0.00,CLR,,0.00,WeatherDisplay:10.37,2013-05-20 09:02:00,
2013-05-20 05:07:00,79.5,70.1,30.03,ESE,112,5.8,5.8,73,0.00,CLR,,0.00,WeatherDisplay:10.37,2013-05-20 09:07:00,
2013-05-20 05:12:00,79.5,70.1,30.03,SE,135,6.9,6.9,73,0.00,CLR,,0.00,WeatherDisplay:10.37,2013-05-20 09:12:00,
2013-05-20 05:17:00,79.5,70.1,30.03,East,90,6.9,6.9,73,0.00,CLR,,0.00,WeatherDisplay:10.37,2013-05-20 09:17:00,
2013-05-20 05:23:00,79.5,69.7,30.03,South,180,5.8,5.8,72,0.00,CLR,,0.00,WeatherDisplay:10.37,2013-05-20 09:23:00,
2013-05-20 05:28:00,79.3,69.9,30.03,SW,225,5.8,5.8,73,0.00,CLR,,0.00,WeatherDisplay:10.37,2013-05-20 09:28:00,
2013-05-20 05:33:00,79.3,69.5,30.03,South,180,5.6,5.6,72,0.00,CLR,,0.00,WeatherDisplay:10.37,2013-05-20 09:33:00,
2013-05-20 05:38:00,79.5,69.7,30.03,SE,135,7.4,7.4,72,0.00,CLR,,0.00,WeatherDisplay:10.37,2013-05-20 09:38:00,
2013-05-20 05:43:00,79.7,69.9,30.03,South,180,7.1,7.1,72,0.00,CLR,,0.00,WeatherDisplay:10.37,2013-05-20 09:43:00,
2013-05-20 05:49:00,79.5,69.7,30.03,South,180,8.1,8.1,72,0.00,CLR,,0.00,WeatherDisplay:10.37,2013-05-20 09:49:00,
2013-05-20 05:54:00,79.5,70.1,30.03,SE,135,10.4,10.4,73,0.00,CLR,,0.00,WeatherDisplay:10.37,2013-05-20 09:54:00,
2013-05-20 05:59:00,79.3,69.9,30.03,SE,135,6.9,6.9,73,0.00,CLR,,0.00,WeatherDisplay:10.37,2013-05-20 09:59:00,
2013-05-20 06:04:00,79.3,69.9,30.00,SE,135,6.9,6.9,73,0.00,CLR,,0.00,WeatherDisplay:10.37,2013-05-20 10:04:00,
2013-05-20 06:09:00,79.3,69.9,30.00,SW,225,7.4,7.4,73,0.00,CLR,,0.00,WeatherDisplay:10.37,2013-05-20 10:09:00,
2013-05-20 06:14:00,79.3,69.9,30.00,South,180,8.1,8.1,73,0.00,CLR,,0.00,WeatherDisplay:10.37,2013-05-20 10:14:00,
2013-05-20 06:19:00,79.5,70.1,30.00,SSE,158,5.8,5.8,73,0.00,CLR,,0.00,WeatherDisplay:10.37,2013-05-20 10:19:00,
2013-05-20 06:24:00,79.7,70.3,30.00,SE,135,6.9,6.9,73,0.00,CLR,,0.00,WeatherDisplay:10.37,2013-05-20 10:24:00,
2013-05-20 06:29:00,79.5,69.7,30.00,West,270,11.5,11.5,72,0.00,CLR,,0.00,WeatherDisplay:10.37,2013-05-20 10:29:00,
2013-05-20 06:34:00,79.5,69.7,30.00,West,270,9.2,9.2,72,0.00,CLR,,0.00,WeatherDisplay:10.37,2013-05-20 10:34:00,
2013-05-20 06:39:00,79.3,69.9,30.00,South,180,7.4,7.4,73,0.00,CLR,,0.00,WeatherDisplay:10.37,2013-05-20 10:39:00,
2013-05-20 06:44:00,79.3,69.9,30.00,SE,135,8.1,8.1,73,0.00,CLR,,0.00,WeatherDisplay:10.37,2013-05-20 10:44:00,
2013-05-20 06:49:00,79.7,70.3,30.03,East,90,6.9,6.9,73,0.00,CLR,,0.00,WeatherDisplay:10.37,2013-05-20 10:49:00,
2013-05-20 06:54:00,79.7,70.7,30.03,South,180,8.1,8.1,74,0.00,CLR,,0.00,WeatherDisplay:10.37,2013-05-20 10:54:00,
2013-05-20 07:00:00,79.7,70.7,30.03,SE,135,5.8,5.8,74,0.00,CLR,,0.00,WeatherDisplay:10.37,2013-05-20 11:00:00,
2013-05-20 07:05:00,79.9,70.8,30.06,SSE,158,5.8,5.8,74,0.00,CLR,,0.00,WeatherDisplay:10.37,2013-05-20 11:05:00,
2013-05-20 07:10:00,79.7,70.7,30.06,ESE,112,8.1,8.1,74,0.00,CLR,,0.00,WeatherDisplay:10.37,2013-05-20 11:10:00,
2013-05-20 07:15:00,79.9,70.4,30.06,ESE,112,8.1,8.1,73,0.00,CLR,,0.00,WeatherDisplay:10.37,2013-05-20 11:15:00,
2013-05-20 07:20:00,79.9,70.4,30.06,SE,135,7.8,7.8,73,0.00,CLR,,0.00,WeatherDisplay:10.37,2013-05-20 11:20:00,
2013-05-20 07:25:00,79.7,70.3,30.06,SE,135,8.5,8.5,73,0.00,CLR,,0.00,WeatherDisplay:10.37,2013-05-20 11:25:00,
2013-05-20 07:30:00,79.5,69.7,30.06,SE,135,5.9,5.9,72,0.00,CLR,,0.00,WeatherDisplay:10.37,2013-05-20 11:30:00,
2013-05-20 07:35:00,79.7,69.9,30.06,East,90,8.1,8.1,72,0.00,CLR,,0.00,WeatherDisplay:10.37,2013-05-20 11:35:00,
2013-05-20 07:40:00,79.7,70.3,30.06,ESE,112,4.6,4.6,73,0.00,CLR,,0.00,WeatherDisplay:10.37,2013-05-20 11:40:00,
2013-05-20 07:45:00,79.5,70.1,30.06,East,90,10.4,10.4,73,0.00,CLR,,0.00,WeatherDisplay:10.37,2013-05-20 11:45:00,
2013-05-20 07:50:00,79.5,70.1,30.06,SE,135,5.8,5.8,73,0.00,CLR,,0.00,WeatherDisplay:10.37,2013-05-20 11:50:00,
2013-05-20 07:55:00,79.5,70.1,30.06,SSE,158,8.1,8.1,73,0.00,CLR,,0.00,WeatherDisplay:10.37,2013-05-20 11:55:00,
2013-05-20 08:00:00,79.6,70.2,30.06,South,174,6.0,10.0,73,0.00,CLR,,0.00,WeatherDisplay:10.37,2013-05-20 12:00:00,
2013-05-20 08:06:00,79.5,70.5,30.06,SE,135,6.0,6.0,74,0.00,CLR,,0.00,WeatherDisplay:10.37,2013-05-20 12:06:00,
2013-05-20 08:11:00,79.5,70.5,30.06,SSE,158,9.2,9.2,74,0.00,CLR,,0.00,WeatherDisplay:10.37,2013-05-20 12:11:00,
2013-05-20 08:16:00,79.7,70.7,30.09,SSE,158,6.9,6.9,74,0.00,CLR,,0.00,WeatherDisplay:10.37,2013-05-20 12:16:00,
2013-05-20 08:21:00,79.7,70.3,30.09,SSW,202,7.1,7.1,73,0.00,CLR,,0.00,WeatherDisplay:10.37,2013-05-20 12:21:00,
2013-05-20 08:26:00,79.7,70.3,30.09,SSW,202,8.1,8.1,73,0.00,CLR,,0.00,WeatherDisplay:10.37,2013-05-20 12:26:00,
2013-05-20 08:31:00,79.7,70.3,30.09,South,180,6.9,6.9,73,0.00,CLR,,0.00,WeatherDisplay:10.37,2013-05-20 12:31:00,
2013-05-20 08:36:00,79.7,70.3,30.09,South,180,8.1,8.1,73,0.00,CLR,,0.00,WeatherDisplay:10.37,2013-05-20 12:36:00,
2013-05-20 08:41:00,79.7,70.3,30.09,SSE,158,8.1,8.1,73,0.00,CLR,,0.00,WeatherDisplay:10.37,2013-05-20 12:41:00,
2013-05-20 08:46:00,79.9,70.4,30.09,SSE,158,5.8,5.8,73,0.00,CLR,,0.00,WeatherDisplay:10.37,2013-05-20 12:46:00,
2013-05-20 08:51:00,79.9,70.0,30.09,South,180,8.1,8.1,72,0.00,CLR,,0.00,WeatherDisplay:10.37,2013-05-20 12:51:00,
2013-05-20 08:56:00,79.9,70.4,30.09,South,180,8.1,8.1,73,0.00,CLR,,0.00,WeatherDisplay:10.37,2013-05-20 12:56:00,
2013-05-20 09:01:00,80.1,70.6,30.09,South,180,10.4,10.4,73,0.00,CLR,,0.00,WeatherDisplay:10.37,2013-05-20 13:01:00,
2013-05-20 09:07:00,80.1,70.2,30.09,NE,45,5.8,5.8,72,0.00,CLR,,0.00,WeatherDisplay:10.37,2013-05-20 13:07:00,
2013-05-20 09:12:00,80.2,70.8,30.09,SSE,158,11.5,11.5,73,0.00,CLR,,0.00,WeatherDisplay:10.37,2013-05-20 13:12:00,
2013-05-20 09:17:00,80.4,71.0,30.09,South,180,8.1,8.1,73,0.00,CLR,,0.00,WeatherDisplay:10.37,2013-05-20 13:17:00,
2013-05-20 09:22:00,80.6,70.7,30.09,East,90,8.1,8.1,72,0.00,CLR,,0.00,WeatherDisplay:10.37,2013-05-20 13:22:00,
2013-05-20 09:27:00,80.8,70.9,30.09,NE,45,8.1,8.1,72,0.00,CLR,,0.00,WeatherDisplay:10.37,2013-05-20 13:27:00,
2013-05-20 09:32:00,81.0,71.1,30.09,SE,135,7.8,7.8,72,0.00,CLR,,0.00,WeatherDisplay:10.37,2013-05-20 13:32:00,
2013-05-20 09:37:00,81.0,70.7,30.09,South,180,4.6,4.6,71,0.00,CLR,,0.00,WeatherDisplay:10.37,2013-05-20 13:37:00,
2013-05-20 09:42:00,80.8,70.9,30.09,East,90,9.2,9.2,72,0.00,CLR,,0.00,WeatherDisplay:10.37,2013-05-20 13:42:00,
2013-05-20 09:47:00,81.0,71.1,30.09,ESE,112,12.1,12.1,72,0.00,CLR,,0.00,WeatherDisplay:10.37,2013-05-20 13:47:00,
2013-05-20 09:52:00,81.0,71.1,30.09,South,180,10.2,10.2,72,0.00,CLR,,0.00,WeatherDisplay:10.37,2013-05-20 13:52:00,
2013-05-20 09:57:00,81.1,71.3,30.09,WSW,248,10.5,10.5,72,0.00,CLR,,0.00,WeatherDisplay:10.37,2013-05-20 13:57:00,
2013-05-20 10:02:00,81.1,70.8,30.09,East,90,8.7,8.7,71,0.00,CLR,,0.00,WeatherDisplay:10.37,2013-05-20 14:02:00,
2013-05-20 10:07:00,81.3,71.0,30.09,SE,135,8.1,8.1,71,0.00,CLR,,0.00,WeatherDisplay:10.37,2013-05-20 14:07:00,
2013-05-20 10:12:00,81.7,71.8,30.09,SE,135,10.4,10.4,72,0.00,CLR,,0.00,WeatherDisplay:10.37,2013-05-20 14:12:00,
2013-05-20 10:17:00,81.7,71.4,30.09,East,90,8.1,8.1,71,0.00,CLR,,0.00,WeatherDisplay:10.37,2013-05-20 14:17:00,
2013-05-20 10:23:00,81.7,71.8,30.09,SE,135,8.1,8.1,72,0.00,CLR,,0.00,WeatherDisplay:10.37,2013-05-20 14:23:00,
2013-05-20 10:28:00,81.5,71.2,30.09,South,180,10.4,10.4,71,0.00,CLR,,0.00,WeatherDisplay:10.37,2013-05-20 14:28:00,
2013-05-20 10:33:00,81.5,70.8,30.09,SSE,158,8.1,8.1,70,0.00,CLR,,0.00,WeatherDisplay:10.37,2013-05-20 14:33:00,
2013-05-20 10:38:00,81.3,70.6,30.09,SE,135,9.2,9.2,70,0.00,CLR,,0.00,WeatherDisplay:10.37,2013-05-20 14:38:00,
2013-05-20 10:43:00,81.1,70.4,30.09,SE,135,8.1,8.1,70,0.00,CLR,,0.00,WeatherDisplay:10.37,2013-05-20 14:43:00,
2013-05-20 10:48:00,81.1,70.4,30.09,SE,135,9.2,9.2,70,0.00,CLR,,0.00,WeatherDisplay:10.37,2013-05-20 14:48:00,
2013-05-20 10:53:00,81.1,70.4,30.09,SE,135,6.9,6.9,70,0.00,CLR,,0.00,WeatherDisplay:10.37,2013-05-20 14:53:00,
2013-05-20 10:59:00,81.1,70.4,30.09,SSE,158,10.0,10.0,70,0.00,CLR,,0.00,WeatherDisplay:10.37,2013-05-20 14:59:00,
2013-05-20 11:04:00,81.1,70.4,30.09,East,90,9.2,9.2,70,0.00,CLR,,0.00,WeatherDisplay:10.37,2013-05-20 15:04:00,
2013-05-20 11:09:00,81.1,70.8,30.09,SSE,158,8.1,8.1,71,0.00,CLR,,0.00,WeatherDisplay:10.37,2013-05-20 15:09:00,
2013-05-20 11:14:00,81.1,70.8,30.09,SSE,158,7.4,7.4,71,0.00,CLR,,0.00,WeatherDisplay:10.37,2013-05-20 15:14:00,
2013-05-20 11:19:00,81.1,70.8,30.09,SSE,158,7.4,7.4,71,0.00,CLR,,0.00,WeatherDisplay:10.37,2013-05-20 15:19:00,
2013-05-20 11:24:00,81.1,70.8,30.09,SSE,158,6.9,6.9,71,0.00,CLR,,0.00,WeatherDisplay:10.37,2013-05-20 15:24:00,
2013-05-20 11:29:00,81.0,71.1,30.09,South,180,8.1,8.1,72,0.02,RA,,0.02,WeatherDisplay:10.37,2013-05-20 15:29:00,
2013-05-20 11:34:00,80.6,70.7,30.06,ESE,112,8.1,8.1,72,0.03,RA,,0.03,WeatherDisplay:10.37,2013-05-20 15:34:00,
2013-05-20 11:40:00,80.2,70.8,30.06,South,180,8.1,8.1,73,0.03,RA,,0.03,WeatherDisplay:10.37,2013-05-20 15:40:00,
2013-05-20 11:45:00,80.1,70.6,30.06,ESE,112,9.2,9.2,73,0.03,CLR,,0.03,WeatherDisplay:10.37,2013-05-20 15:45:00,
2013-05-20 11:50:00,80.1,71.0,30.12,SE,142,6.0,10.0,74,0.00,RA,,0.03,WeatherDisplay:10.37,2013-05-20 15:50:00,
2013-05-20 11:55:00,80.1,70.6,30.12,SW,225,11.5,11.5,73,0.03,CLR,,0.03,WeatherDisplay:10.37,2013-05-20 15:55:00,
2013-05-20 12:00:00,79.9,70.8,30.12,ESE,112,9.2,9.2,74,0.03,CLR,,0.03,WeatherDisplay:10.37,2013-05-20 16:00:00,
2013-05-20 12:05:00,80.1,71.0,30.09,SSE,158,5.6,5.6,74,0.03,CLR,,0.03,WeatherDisplay:10.37,2013-05-20 16:05:00,
2013-05-20 12:10:00,80.1,71.0,30.09,South,180,4.6,4.7,74,0.03,CLR,,0.03,WeatherDisplay:10.37,2013-05-20 16:10:00,
2013-05-20 12:15:00,80.1,71.4,30.09,East,90,4.9,4.9,75,0.03,CLR,,0.03,WeatherDisplay:10.37,2013-05-20 16:15:00,
2013-05-20 12:20:00,79.9,71.2,30.09,SE,135,7.8,7.8,75,0.05,RA,,0.06,WeatherDisplay:10.37,2013-05-20 16:20:00,
2013-05-20 12:26:00,79.5,70.9,30.09,SSW,202,5.8,5.8,75,0.05,RA,,0.06,WeatherDisplay:10.37,2013-05-20 16:26:00,
2013-05-20 12:31:00,79.5,70.9,30.09,SSE,150,3.0,5.0,75,0.00,RA,,0.06,WeatherDisplay:10.37,2013-05-20 16:31:00,
2013-05-20 12:36:00,79.9,71.2,30.12,South,180,5.8,5.8,75,0.04,RA,,0.07,WeatherDisplay:10.37,2013-05-20 16:36:00,
2013-05-20 12:41:00,79.9,71.2,30.12,East,90,3.3,3.3,75,0.04,,,0.07,WeatherDisplay:10.37,2013-05-20 16:41:00,
2013-05-20 12:46:00,78.4,70.2,30.09,ENE,68,6.4,6.4,76,0.04,CLR,,0.07,WeatherDisplay:10.37,2013-05-20 16:46:00,
2013-05-20 12:51:00,79.0,71.2,30.09,NW,315,2.3,2.3,77,0.04,CLR,,0.07,WeatherDisplay:10.37,2013-05-20 16:51:00,
2013-05-20 12:56:00,79.5,71.7,30.09,East,90,5.8,5.8,77,0.04,CLR,,0.07,WeatherDisplay:10.37,2013-05-20 16:56:00,
2013-05-20 13:02:00,79.7,71.5,30.09,SE,135,8.1,8.1,76,0.04,CLR,,0.07,WeatherDisplay:10.37,2013-05-20 17:02:00,
2013-05-20 13:07:00,79.7,71.5,30.09,East,90,6.9,6.9,76,0.04,CLR,,0.07,WeatherDisplay:10.37,2013-05-20 17:07:00,
2013-05-20 13:12:00,79.7,71.5,30.09,East,90,12.7,12.7,76,0.04,CLR,,0.07,WeatherDisplay:10.37,2013-05-20 17:12:00,
2013-05-20 13:17:00,79.7,71.5,30.09,NNE,22,4.6,4.6,76,0.03,CLR,,0.07,WeatherDisplay:10.37,2013-05-20 17:17:00,
2013-05-20 13:23:00,79.9,71.6,30.09,ENE,68,5.8,5.8,76,0.01,CLR,,0.07,WeatherDisplay:10.37,2013-05-20 17:23:00,
2013-05-20 13:28:00,80.2,72.0,30.09,South,180,6.9,6.9,76,0.01,CLR,,0.07,WeatherDisplay:10.37,2013-05-20 17:28:00,
2013-05-20 13:33:00,80.2,72.0,30.09,South,180,5.8,5.8,76,0.00,CLR,,0.07,WeatherDisplay:10.37,2013-05-20 17:33:00,
2013-05-20 13:38:00,80.6,72.3,30.09,East,90,5.8,5.8,76,0.00,CLR,,0.07,WeatherDisplay:10.37,2013-05-20 17:38:00,
2013-05-20 13:43:00,81.0,72.3,30.09,East,90,8.1,8.1,75,0.00,CLR,,0.07,WeatherDisplay:10.37,2013-05-20 17:43:00,
2013-05-20 13:49:00,81.0,72.3,30.09,East,90,5.8,5.8,75,0.00,CLR,,0.07,WeatherDisplay:10.37,2013-05-20 17:49:00,
2013-05-20 13:54:00,80.8,71.7,30.09,SE,135,5.8,5.8,74,0.00,CLR,,0.07,WeatherDisplay:10.37,2013-05-20 17:54:00,
2013-05-20 13:59:00,80.6,71.5,30.09,SW,225,4.6,4.6,74,0.00,CLR,,0.07,WeatherDisplay:10.37,2013-05-20 17:59:00,
2013-05-20 14:04:00,80.4,71.4,30.09,South,180,8.1,8.1,74,0.00,CLR,,0.07,WeatherDisplay:10.37,2013-05-20 18:04:00,
2013-05-20 14:09:00,80.2,71.6,30.09,SE,135,8.1,8.1,75,0.00,CLR,,0.07,WeatherDisplay:10.37,2013-05-20 18:09:00,
2013-05-20 14:14:00,80.1,71.0,30.09,South,180,7.4,7.4,74,0.00,CLR,,0.07,WeatherDisplay:10.37,2013-05-20 18:14:00,
2013-05-20 14:19:00,80.2,71.6,30.09,ESE,112,8.1,8.1,75,0.00,CLR,,0.07,WeatherDisplay:10.37,2013-05-20 18:19:00,
2013-05-20 14:25:00,80.2,71.2,30.09,WSW,248,6.0,6.0,74,0.00,CLR,,0.07,WeatherDisplay:10.37,2013-05-20 18:25:00,
2013-05-20 14:30:00,78.8,69.4,30.09,SSW,202,6.9,6.9,73,0.00,CLR,,0.07,WeatherDisplay:10.37,2013-05-20 18:30:00,
2013-05-20 14:35:00,78.0,68.7,30.09,SW,222,5.0,7.0,73,0.00,RA,,0.07,WeatherDisplay:10.37,2013-05-20 18:35:00,
2013-05-20 14:40:00,77.4,68.0,30.09,SE,135,5.8,5.8,73,0.00,CLR,,0.07,WeatherDisplay:10.37,2013-05-20 18:40:00,
2013-05-20 14:45:00,77.4,68.4,30.09,WSW,248,3.5,3.5,74,0.00,CLR,,0.07,WeatherDisplay:10.37,2013-05-20 18:45:00,
2013-05-20 14:50:00,76.8,68.3,30.09,NW,315,4.6,4.6,75,0.00,CLR,,0.08,WeatherDisplay:10.37,2013-05-20 18:50:00,
2013-05-20 14:55:00,76.1,68.0,30.09,NW,315,6.9,6.9,76,0.01,RA,,0.08,WeatherDisplay:10.37,2013-05-20 18:55:00,
2013-05-20 15:01:00,75.7,67.6,30.09,East,90,5.8,5.8,76,0.02,RA,,0.13,WeatherDisplay:10.37,2013-05-20 19:01:00,
2013-05-20 15:06:00,76.3,68.5,30.09,NNE,22,3.5,0.0,77,0.35,RA,,0.42,WeatherDisplay:10.37,2013-05-20 19:06:00,
2013-05-20 15:11:00,75.6,67.8,30.09,NNE,22,4.6,4.6,77,0.41,RA,,0.49,WeatherDisplay:10.37,2013-05-20 19:11:00,
2013-05-20 15:16:00,75.2,67.9,30.06,North,0,4.6,4.6,78,0.45,RA,,0.52,WeatherDisplay:10.37,2013-05-20 19:16:00,
2013-05-20 15:21:00,75.0,68.1,30.06,West,270,8.1,8.1,79,0.52,RA,,0.59,WeatherDisplay:10.37,2013-05-20 19:21:00,
2013-05-20 15:26:00,74.7,67.7,30.06,North,0,8.1,8.1,79,0.56,RA,,0.63,WeatherDisplay:10.37,2013-05-20 19:26:00,
2013-05-20 15:31:00,74.1,67.9,30.09,West,270,10.2,10.2,81,0.58,RA,,0.67,WeatherDisplay:10.37,2013-05-20 19:31:00,
2013-05-20 15:37:00,73.9,68.1,30.09,NW,315,12.7,12.7,82,0.71,RA,,0.78,WeatherDisplay:10.37,2013-05-20 19:37:00,
2013-05-20 15:42:00,74.1,68.6,30.09,North,0,6.9,6.9,83,0.90,RA,,0.97,WeatherDisplay:10.37,2013-05-20 19:42:00,
2013-05-20 15:47:00,73.9,68.1,30.09,NW,315,5.8,5.8,82,1.05,RA,,1.12,WeatherDisplay:10.37,2013-05-20 19:47:00,
2013-05-20 15:52:00,73.6,67.7,30.09,South,180,3.1,3.1,82,1.14,RA,,1.24,WeatherDisplay:10.37,2013-05-20 19:52:00,
2013-05-20 15:57:00,73.2,67.7,30.09,SE,135,8.1,8.1,83,1.25,RA,,1.33,WeatherDisplay:10.37,2013-05-20 19:57:00,
2013-05-20 16:02:00,73.2,67.0,30.09,ENE,68,8.1,8.1,81,1.34,RA,,1.50,WeatherDisplay:10.37,2013-05-20 20:02:00,
2013-05-20 16:07:00,73.8,67.2,30.09,West,270,0.0,0.0,80,1.15,RA,,1.60,WeatherDisplay:10.37,2013-05-20 20:07:00,
2013-05-20 16:13:00,73.9,67.7,30.09,East,90,1.6,1.6,81,1.15,RA,,1.67,WeatherDisplay:10.37,2013-05-20 20:13:00,
2013-05-20 16:18:00,73.9,68.1,30.06,South,180,0.0,0.0,82,1.20,RA,,1.73,WeatherDisplay:10.37,2013-05-20 20:18:00,
2013-05-20 16:23:00,73.8,68.3,30.06,South,180,2.6,2.6,83,1.12,RA,,1.74,WeatherDisplay:10.37,2013-05-20 20:23:00,
2013-05-20 16:28:00,74.1,68.6,30.06,SE,135,2.3,2.3,83,1.12,RA,,1.76,WeatherDisplay:10.37,2013-05-20 20:28:00,
2013-05-20 16:33:00,74.8,70.0,30.03,East,90,3.5,3.5,85,1.09,RA,,1.76,WeatherDisplay:10.37,2013-05-20 20:33:00,
2013-05-20 16:39:00,75.4,70.6,30.03,SW,225,3.8,3.8,85,0.99,RA,,1.77,WeatherDisplay:10.37,2013-05-20 20:39:00,
2013-05-20 16:44:00,75.2,70.0,30.03,South,180,5.9,5.9,84,0.79,RA,,1.77,WeatherDisplay:10.37,2013-05-20 20:44:00,
2013-05-20 16:49:00,75.4,69.9,30.06,SE,135,8.1,8.1,83,0.63,,,1.77,WeatherDisplay:10.37,2013-05-20 20:49:00,
2013-05-20 16:54:00,75.6,70.4,30.06,ESE,112,3.5,3.5,84,0.50,CLR,,1.77,WeatherDisplay:10.37,2013-05-20 20:54:00,
2013-05-20 16:59:00,75.6,70.4,30.06,ESE,112,3.5,3.5,84,0.40,CLR,,1.77,WeatherDisplay:10.37,2013-05-20 20:59:00,
2013-05-20 17:05:00,75.6,70.0,30.03,ENE,68,5.8,5.8,83,0.21,CLR,,1.77,WeatherDisplay:10.37,2013-05-20 21:05:00,
2013-05-20 17:10:00,75.6,70.0,30.03,SW,225,3.5,3.8,83,0.15,CLR,,1.77,WeatherDisplay:10.37,2013-05-20 21:10:00,
2013-05-20 17:15:00,75.6,70.0,30.03,South,180,2.3,2.3,83,0.06,CLR,,1.77,WeatherDisplay:10.37,2013-05-20 21:15:00,
2013-05-20 17:20:00,75.7,70.5,30.03,South,177,1.0,3.0,84,0.00,RA,,1.77,WeatherDisplay:10.37,2013-05-20 21:20:00,
2013-05-20 17:25:00,76.1,71.3,30.03,SW,225,2.4,2.4,85,0.02,CLR,,1.77,WeatherDisplay:10.37,2013-05-20 21:25:00,
2013-05-20 17:30:00,76.1,71.3,30.03,West,270,4.0,4.0,85,0.01,CLR,,1.77,WeatherDisplay:10.37,2013-05-20 21:30:00,
2013-05-20 17:35:00,76.1,71.3,30.03,NW,315,3.5,3.5,85,0.01,CLR,,1.77,WeatherDisplay:10.37,2013-05-20 21:35:00,
2013-05-20 17:41:00,76.3,71.8,30.03,North,0,2.3,2.3,86,0.00,CLR,,1.77,WeatherDisplay:10.37,2013-05-20 21:41:00,
2013-05-20 17:46:00,76.3,71.8,30.03,NW,315,0.0,0.0,86,0.00,CLR,,1.77,WeatherDisplay:10.37,2013-05-20 21:46:00,
2013-05-20 17:51:00,76.3,71.8,30.00,NW,315,2.3,2.3,86,0.00,CLR,,1.77,WeatherDisplay:10.37,2013-05-20 21:51:00,
2013-05-20 17:56:00,76.3,71.8,30.00,West,270,2.9,2.9,86,0.00,CLR,,1.77,WeatherDisplay:10.37,2013-05-20 21:56:00,
2013-05-20 18:01:00,76.3,72.1,30.03,NW,315,3.5,3.5,87,0.00,CLR,,1.77,WeatherDisplay:10.37,2013-05-20 22:01:00,
2013-05-20 18:06:00,76.3,72.1,30.03,NW,315,1.6,0.0,87,0.00,CLR,,1.77,WeatherDisplay:10.37,2013-05-20 22:06:00,
2013-05-20 18:11:00,76.3,72.1,30.03,NW,315,0.0,0.0,87,0.00,CLR,,1.77,WeatherDisplay:10.37,2013-05-20 22:11:00,
2013-05-20 18:16:00,76.6,72.8,30.03,NW,315,0.0,0.0,88,0.00,CLR,,1.77,WeatherDisplay:10.37,2013-05-20 22:16:00,
2013-05-20 18:21:00,76.8,73.0,30.03,WNW,292,0.0,0.0,88,0.00,CLR,,1.77,WeatherDisplay:10.37,2013-05-20 22:21:00,
2013-05-20 18:26:00,76.6,72.8,30.03,NW,315,0.0,0.0,88,0.00,CLR,,1.77,WeatherDisplay:10.37,2013-05-20 22:26:00,
2013-05-20 18:31:00,76.5,72.6,30.03,North,0,1.2,1.2,88,0.00,CLR,,1.77,WeatherDisplay:10.37,2013-05-20 22:31:00,
2013-05-20 18:37:00,76.5,72.6,30.03,East,90,3.1,3.1,88,0.00,CLR,,1.77,WeatherDisplay:10.37,2013-05-20 22:37:00,
2013-05-20 18:42:00,76.3,72.1,30.03,ESE,112,0.0,0.0,87,0.00,CLR,,1.77,WeatherDisplay:10.37,2013-05-20 22:42:00,
2013-05-20 18:47:00,76.5,72.3,30.03,South,180,5.8,5.8,87,0.00,CLR,,1.77,WeatherDisplay:10.37,2013-05-20 22:47:00,
2013-05-20 18:52:00,76.5,72.3,30.03,East,90,3.5,3.5,87,0.00,CLR,,1.77,WeatherDisplay:10.37,2013-05-20 22:52:00,
2013-05-20 18:58:00,76.6,72.5,30.03,East,90,4.6,4.6,87,0.00,CLR,,1.77,WeatherDisplay:10.37,2013-05-20 22:58:00,
2013-05-20 19:03:00,76.6,72.5,30.00,NE,45,6.9,6.9,87,0.00,CLR,,1.77,WeatherDisplay:10.37,2013-05-20 23:03:00,
2013-05-20 19:08:00,77.0,72.5,30.00,North,0,7.4,7.4,86,0.00,CLR,,1.77,WeatherDisplay:10.37,2013-05-20 23:08:00,
2013-05-20 19:13:00,77.0,72.5,30.00,ESE,112,6.9,6.9,86,0.00,CLR,,1.77,WeatherDisplay:10.37,2013-05-20 23:13:00,
2013-05-20 19:18:00,77.0,72.5,30.00,East,90,7.4,7.4,86,0.00,CLR,,1.77,WeatherDisplay:10.37,2013-05-20 23:18:00,
2013-05-20 19:23:00,77.2,72.3,30.00,SE,135,6.9,6.9,85,0.00,CLR,,1.77,WeatherDisplay:10.37,2013-05-20 23:23:00,
2013-05-20 19:28:00,77.2,72.3,30.00,SE,135,9.2,9.2,85,0.00,CLR,,1.77,WeatherDisplay:10.37,2013-05-20 23:28:00,
2013-05-20 19:33:00,77.2,72.3,30.03,NNE,22,8.1,8.1,85,0.00,CLR,,1.77,WeatherDisplay:10.37,2013-05-20 23:33:00,
2013-05-20 19:38:00,77.4,72.5,30.03,NE,45,6.9,6.9,85,0.00,CLR,,1.77,WeatherDisplay:10.37,2013-05-20 23:38:00,
2013-05-20 19:44:00,77.4,72.5,30.03,SE,135,5.8,5.8,85,0.00,CLR,,1.77,WeatherDisplay:10.37,2013-05-20 23:44:00,
2013-05-20 19:49:00,77.4,72.5,30.03,ENE,68,8.1,8.1,85,0.00,CLR,,1.77,WeatherDisplay:10.37,2013-05-20 23:49:00,
2013-05-20 19:54:00,77.7,72.8,30.03,ENE,68,7.8,7.8,85,0.00,CLR,,1.77,WeatherDisplay:10.37,2013-05-20 23:54:00,
2013-05-20 19:59:00,77.7,72.8,30.03,West,270,6.9,6.9,85,0.00,CLR,,1.77,WeatherDisplay:10.37,2013-05-20 23:59:00,
2013-05-20 20:04:00,77.9,73.0,30.03,SE,135,7.6,7.6,85,0.00,CLR,,1.77,WeatherDisplay:10.37,2013-05-21 00:04:00,
2013-05-20 20:09:00,77.7,72.5,30.03,North,0,5.8,5.8,84,0.00,CLR,,1.77,WeatherDisplay:10.37,2013-05-21 00:09:00,
2013-05-20 20:14:00,77.7,72.5,30.03,SE,135,6.9,6.9,84,0.00,CLR,,1.77,WeatherDisplay:10.37,2013-05-21 00:14:00,
2013-05-20 20:19:00,77.7,72.1,30.06,SE,135,4.6,4.6,83,0.00,CLR,,1.77,WeatherDisplay:10.37,2013-05-21 00:19:00,
2013-05-20 20:25:00,77.7,72.1,30.06,ENE,71,5.0,9.0,83,0.00,RA,,1.77,WeatherDisplay:10.37,2013-05-21 00:25:00,
2013-05-20 20:30:00,77.7,71.8,30.06,NE,45,4.6,4.6,82,0.00,CLR,,1.77,WeatherDisplay:10.37,2013-05-21 00:30:00,
2013-05-20 20:35:00,77.9,72.3,30.06,ENE,68,8.7,8.7,83,0.00,CLR,,1.77,WeatherDisplay:10.37,2013-05-21 00:35:00,
2013-05-20 20:40:00,78.1,72.1,30.06,ESE,112,7.8,7.8,82,0.00,CLR,,1.77,WeatherDisplay:10.37,2013-05-21 00:40:00,
2013-05-20 20:45:00,78.3,72.3,30.06,East,90,7.1,7.1,82,0.00,CLR,,1.77,WeatherDisplay:10.37,2013-05-21 00:45:00,
2013-05-20 20:51:00,78.1,72.1,30.06,NNE,22,5.9,5.9,82,0.00,CLR,,1.77,WeatherDisplay:10.37,2013-05-21 00:51:00,
2013-05-20 20:56:00,78.1,72.1,30.06,NNE,22,8.1,8.1,82,0.00,CLR,,1.77,WeatherDisplay:10.37,2013-05-21 00:56:00,
2013-05-20 21:01:00,78.1,72.1,30.06,East,90,5.8,5.8,82,0.00,CLR,,1.77,WeatherDisplay:10.37,2013-05-21 01:01:00,
2013-05-20 21:06:00,78.3,72.3,30.03,NE,45,8.5,8.5,82,0.00,CLR,,1.77,WeatherDisplay:10.37,2013-05-21 01:06:00,
2013-05-20 21:11:00,78.6,72.7,30.03,East,90,8.1,8.1,82,0.00,CLR,,1.77,WeatherDisplay:10.37,2013-05-21 01:11:00,
2013-05-20 21:17:00,78.8,72.8,30.06,NE,45,6.9,6.9,82,0.00,CLR,,1.77,WeatherDisplay:10.37,2013-05-21 01:17:00,
2013-05-20 21:22:00,78.4,72.1,30.06,SE,135,5.8,5.8,81,0.00,CLR,,1.77,WeatherDisplay:10.37,2013-05-21 01:22:00,
2013-05-20 21:27:00,78.3,71.9,30.06,NE,45,8.5,8.5,81,0.00,CLR,,1.77,WeatherDisplay:10.37,2013-05-21 01:27:00,
2013-05-20 21:32:00,78.1,71.8,30.06,SE,135,4.6,4.6,81,0.00,CLR,,1.77,WeatherDisplay:10.37,2013-05-21 01:32:00,
2013-05-20 21:37:00,78.1,71.8,30.06,ESE,112,8.7,8.7,81,0.00,CLR,,1.77,WeatherDisplay:10.37,2013-05-21 01:37:00,
2013-05-20 21:42:00,78.3,71.9,30.06,SE,135,15.2,15.2,81,0.00,CLR,,1.77,WeatherDisplay:10.37,2013-05-21 01:42:00,
2013-05-20 21:47:00,78.1,72.1,30.06,South,180,13.8,13.8,82,0.00,CLR,,1.77,WeatherDisplay:10.37,2013-05-21 01:47:00,
2013-05-20 21:53:00,77.5,71.6,30.06,SE,135,8.1,8.1,82,0.01,RA,,1.78,WeatherDisplay:10.37,2013-05-21 01:53:00,
2013-05-20 21:58:00,77.4,71.4,30.06,South,180,5.8,5.8,82,0.01,RA,,1.78,WeatherDisplay:10.37,2013-05-21 01:58:00,
2013-05-20 22:03:00,77.4,71.4,30.09,SW,225,12.7,12.7,82,0.02,RA,,1.79,WeatherDisplay:10.37,2013-05-21 02:03:00,
2013-05-20 22:08:00,75.6,69.3,30.09,West,270,5.8,5.8,81,0.02,RA,,1.79,WeatherDisplay:10.37,2013-05-21 02:08:00,
2013-05-20 22:13:00,74.8,69.0,30.09,South,180,12.3,12.3,82,0.04,RA,,1.81,WeatherDisplay:10.37,2013-05-21 02:13:00,
2013-05-20 22:18:00,74.8,69.0,30.09,South,180,9.2,9.2,82,0.05,RA,,1.82,WeatherDisplay:10.37,2013-05-21 02:18:00,
2013-05-20 22:24:00,73.9,68.4,30.09,SW,225,6.9,6.9,83,0.05,RA,,1.82,WeatherDisplay:10.37,2013-05-21 02:24:00,
2013-05-20 22:29:00,73.8,68.3,30.09,SW,225,7.6,7.6,83,0.06,RA,,1.83,WeatherDisplay:10.37,2013-05-21 02:29:00,
2013-05-20 22:34:00,73.6,68.4,30.06,South,180,7.1,7.1,84,0.06,RA,,1.83,WeatherDisplay:10.37,2013-05-21 02:34:00,
2013-05-20 22:40:00,74.1,69.0,30.06,SSE,158,6.2,6.2,84,0.12,RA,,1.89,WeatherDisplay:10.37,2013-05-21 02:40:00,
2013-05-20 22:45:00,74.1,69.7,30.06,West,270,10.7,10.7,86,0.38,RA,,2.15,WeatherDisplay:10.37,2013-05-21 02:45:00,
2013-05-20 22:50:00,73.6,69.8,30.09,SW,225,11.5,11.5,88,0.56,RA,,2.34,WeatherDisplay:10.37,2013-05-21 02:50:00,
2013-05-20 22:55:00,73.0,69.3,30.09,West,270,6.2,6.2,88,0.66,RA,,2.45,WeatherDisplay:10.37,2013-05-21 02:55:00,
2013-05-20 23:00:00,73.4,69.6,30.09,SW,225,4.6,4.6,88,0.73,RA,,2.53,WeatherDisplay:10.37,2013-05-21 03:00:00,
2013-05-20 23:05:00,73.9,70.5,30.06,North,0,2.3,0.0,89,0.78,RA,,2.57,WeatherDisplay:10.37,2013-05-21 03:05:00,
2013-05-20 23:11:00,73.9,70.2,30.06,NW,315,2.6,0.0,88,0.81,RA,,2.61,WeatherDisplay:10.37,2013-05-21 03:11:00,
2013-05-20 23:16:00,73.9,70.2,30.09,North,0,3.5,3.5,88,0.82,RA,,2.63,WeatherDisplay:10.37,2013-05-21 03:16:00,
2013-05-20 23:21:00,73.9,70.5,30.09,NE,45,1.2,0.0,89,0.85,RA,,2.72,WeatherDisplay:10.37,2013-05-21 03:21:00,
2013-05-20 23:26:00,73.9,70.5,30.09,North,0,3.5,3.5,89,0.99,RA,,2.81,WeatherDisplay:10.37,2013-05-21 03:26:00,
2013-05-20 23:31:00,73.9,70.5,30.09,NE,45,6.4,6.4,89,1.10,RA,,2.96,WeatherDisplay:10.37,2013-05-21 03:31:00,
2013-05-20 23:36:00,74.3,70.8,30.09,ESE,112,5.8,5.8,89,1.16,RA,,3.00,WeatherDisplay:10.37,2013-05-21 03:36:00,
2013-05-20 23:42:00,74.3,70.8,30.09,SE,135,6.2,6.2,89,1.12,RA,,3.01,WeatherDisplay:10.37,2013-05-21 03:42:00,
2013-05-20 23:47:00,74.5,71.4,30.09,SW,225,3.5,3.5,90,0.87,RA,,3.02,WeatherDisplay:10.37,2013-05-21 03:47:00,
2013-05-20 23:52:00,74.5,71.4,30.09,North,0,2.3,2.3,90,0.68,RA,,3.02,WeatherDisplay:10.37,2013-05-21 03:52:00,
2013-05-20 23:58:00,74.5,71.4,30.09,NW,315,1.2,0.0,90,0.55,,,3.02,WeatherDisplay:10.37,2013-05-21 03:58:00,